QPF
0.15 0.20 0.23 0.23 0.20 0.14 0.11 0.07 0.08 0.07 0.08 0.09 0.08 0.09 0.10 0.10 0.10 0.11 0.11 0.13 0.09 0.08 0.10 0.09 0.08 0.07 0.06 0.04 0.04 0.02 0.02 0.03 0.02 0.02 0.01 0.02 0.02 0.02 0.03 0.03 0.03 0.02 0.02
0.20 0.23 0.29 0.26 0.20 0.18 0.17 0.13 0.11 0.09 0.09 0.08 0.09 0.09 0.10 0.08 0.07 0.06 0.07 0.09 0.08 0.06 0.07 0.08 0.08 0.08 0.07 0.05 0.05 0.04 0.03 0.02 0.03 0.04 0.03 0.04 0.03 0.03 0.03 0.02 0.02 0.02 0.02
0.23 0.26 0.28 0.27 0.23 0.19 0.20 0.19 0.14 0.13 0.11 0.09 0.09 0.09 0.10 0.09 0.08 0.07 0.08 0.05 0.05 0.05 0.06 0.06 0.07 0.07 0.07 0.07 0.06 0.05 0.04 0.04 0.04 0.06 0.06 0.05 0.04 0.03 0.02 0.02 0.01 0.01 0.02
0.22 0.27 0.26 0.22 0.20 0.20 0.20 0.19 0.17 0.15 0.13 0.12 0.11 0.11 0.10 0.08 0.07 0.07 0.06 0.05 0.05 0.04 0.04 0.05 0.05 0.06 0.08 0.10 0.08 0.07 0.07 0.07 0.06 0.07 0.09 0.08 0.05 0.04 0.03 0.02 0.02 0.02 0.02
0.15 0.20 0.22 0.16 0.14 0.15 0.13 0.12 0.13 0.11 0.12 0.12 0.12 0.11 0.11 0.10 0.07 0.05 0.04 0.04 0.04 0.04 0.05 0.05 0.05 0.05 0.07 0.09 0.10 0.10 0.10 0.10 0.09 0.09 0.10 0.10 0.08 0.06 0.04 0.03 0.03 0.03 0.02
0.20 0.20 0.21 0.17 0.12 0.11 0.11 0.10 0.11 0.10 0.08 0.09 0.10 0.12 0.13 0.12 0.08 0.05 0.05 0.04 0.05 0.05 0.07 0.06 0.06 0.05 0.06 0.07 0.10 0.12 0.12 0.12 0.11 0.11 0.10 0.11 0.10 0.08 0.09 0.09 0.07 0.05 0.04
0.19 0.18 0.16 0.15 0.14 0.13 0.12 0.10 0.10 0.11 0.10 0.10 0.11 0.12 0.10 0.09 0.09 0.07 0.05 0.06 0.07 0.08 0.09 0.09 0.05 0.04 0.04 0.05 0.06 0.08 0.09 0.10 0.12 0.15 0.17 0.15 0.13 0.11 0.12 0.13 0.14 0.12 0.10
0.13 0.17 0.15 0.14 0.14 0.13 0.14 0.13 0.12 0.12 0.13 0.11 0.12 0.12 0.09 0.07 0.08 0.06 0.07 0.10 0.12 0.10 0.10 0.11 0.08 0.04 0.04 0.04 0.04 0.06 0.08 0.11 0.15 0.16 0.15 0.14 0.14 0.12 0.10 0.12 0.14 0.14 0.13
0.08 0.14 0.16 0.14 0.14 0.15 0.15 0.15 0.14 0.13 0.13 0.12 0.11 0.12 0.11 0.07 0.06 0.07 0.12 0.12 0.13 0.13 0.12 0.11 0.09 0.08 0.07 0.05 0.04 0.06 0.07 0.08 0.11 0.13 0.11 0.12 0.11 0.09 0.09 0.09 0.10 0.11 0.11
0.05 0.10 0.15 0.15 0.14 0.14 0.15 0.14 0.13 0.12 0.14 0.15 0.15 0.12 0.11 0.09 0.07 0.06 0.09 0.11 0.12 0.11 0.12 0.12 0.12 0.10 0.08 0.06 0.04 0.05 0.05 0.05 0.07 0.08 0.07 0.06 0.07 0.07 0.08 0.09 0.12 0.13 0.11
0.07 0.08 0.09 0.10 0.10 0.11 0.12 0.13 0.12 0.11 0.11 0.11 0.12 0.12 0.10 0.09 0.08 0.05 0.04 0.05 0.06 0.08 0.10 0.13 0.13 0.10 0.07 0.06 0.04 0.03 0.03 0.03 0.04 0.05 0.04 0.04 0.05 0.07 0.10 0.12 0.12 0.12 0.12
0.10 0.11 0.11 0.09 0.09 0.10 0.12 0.14 0.12 0.12 0.10 0.09 0.10 0.09 0.08 0.08 0.07 0.06 0.05 0.04 0.04 0.04 0.06 0.09 0.11 0.11 0.10 0.08 0.05 0.05 0.04 0.03 0.03 0.03 0.03 0.04 0.04 0.07 0.11 0.13 0.15 0.15 0.14
0.06 0.08 0.08 0.06 0.06 0.06 0.07 0.08 0.08 0.07 0.07 0.06 0.06 0.07 0.07 0.06 0.06 0.06 0.06 0.05 0.03 0.02 0.03 0.05 0.06 0.07 0.08 0.09 0.07 0.05 0.04 0.04 0.04 0.04 0.04 0.04 0.04 0.05 0.07 0.08 0.10 0.11 0.10
0.03 0.03 0.03 0.03 0.02 0.01 0.02 0.03 0.04 0.03 0.02 0.03 0.03 0.04 0.04 0.03 0.04 0.05 0.07 0.06 0.03 0.02 0.02 0.02 0.04 0.06 0.06 0.06 0.07 0.07 0.06 0.06 0.05 0.05 0.05 0.05 0.06 0.06 0.05 0.06 0.07 0.07 0.07
0.01 0.02 0.01 0.01 0.01 0.01 0.01 0.01 0.01 0.01 0.01 0.01 0.02 0.02 0.02 0.02 0.03 0.04 0.05 0.04 0.03 0.02 0.02 0.01 0.01 0.03 0.03 0.04 0.07 0.06 0.06 0.07 0.07 0.07 0.06 0.06 0.06 0.06 0.05 0.06 0.05 0.05 0.05
0.01 0.01 0.01 0.01 0.01 0.01 0.01 0.01 0.01 0.01 0.01 0.01 0.01 0.02 0.03 0.03 0.03 0.03 0.04 0.04 0.03 0.03 0.02 0.01 0.02 0.02 0.03 0.04 0.07 0.07 0.07 0.08 0.06 0.05 0.06 0.05 0.05 0.04 0.04 0.04 0.04 0.04 0.04
0.00 0.00 0.00 0.01 0.00 0.01 0.01 0.01 0.01 0.01 0.01 0.02 0.03 0.03 0.03 0.04 0.03 0.03 0.02 0.03 0.03 0.03 0.02 0.02 0.03 0.03 0.04 0.05 0.05 0.05 0.05 0.05 0.05 0.06 0.05 0.04 0.04 0.03 0.03 0.03 0.03 0.02 0.02
0.00 0.00 0.00 0.01 0.00 0.00 0.00 0.01 0.01 0.01 0.02 0.02 0.02 0.02 0.03 0.03 0.02 0.02 0.02 0.02 0.02 0.02 0.02 0.02 0.04 0.05 0.05 0.05 0.05 0.05 0.05 0.05 0.04 0.05 0.04 0.03 0.03 0.03 0.03 0.02 0.02 0.02 0.02
0.00 0.00 0.00 0.00 0.00 0.00 0.00 0.01 0.01 0.01 0.01 0.02 0.03 0.03 0.02 0.02 0.01 0.01 0.01 0.01 0.01 0.01 0.02 0.03 0.04 0.06 0.06 0.05 0.04 0.04 0.04 0.03 0.03 0.04 0.04 0.04 0.03 0.03 0.02 0.02 0.02 0.01 0.02
0.01 0.00 0.00 0.00 0.00 0.00 0.00 0.00 0.01 0.01 0.01 0.01 0.01 0.02 0.01 0.02 0.02 0.01 0.01 0.01 0.01 0.01 0.02 0.03 0.05 0.06 0.06 0.04 0.04 0.04 0.03 0.03 0.02 0.02 0.02 0.02 0.02 0.02 0.02 0.02 0.02 0.02 0.02
0.00 0.00 0.00 0.00 0.00 0.00 0.00 0.01 0.01 0.01 0.01 0.01 0.01 0.01 0.01 0.02 0.03 0.02 0.02 0.01 0.01 0.02 0.03 0.05 0.06 0.05 0.04 0.03 0.04 0.04 0.03 0.03 0.01 0.01 0.01 0.01 0.01 0.02 0.02 0.02 0.02 0.02 0.02
0.00 0.00 0.00 0.00 0.00 0.00 0.00 0.00 0.00 0.00 0.01 0.02 0.02 0.02 0.03 0.02 0.03 0.03 0.03 0.02 0.02 0.02 0.03 0.04 0.04 0.04 0.04 0.03 0.03 0.03 0.03 0.02 0.01 0.01 0.00 0.01 0.01 0.02 0.02 0.02 0.02 0.02 0.02
0.01 0.01 0.01 0.00 0.00 0.00 0.00 0.00 0.00 0.00 0.01 0.02 0.03 0.02 0.02 0.02 0.03 0.03 0.02 0.02 0.03 0.03 0.03 0.02 0.02 0.02 0.03 0.05 0.04 0.04 0.03 0.01 0.01 0.01 0.01 0.01 0.01 0.01 0.01 0.02 0.02 0.01 0.01
0.01 0.01 0.01 0.00 0.00 0.00 0.01 0.01 0.01 0.01 0.02 0.02 0.03 0.03 0.03 0.03 0.03 0.03 0.03 0.02 0.02 0.03 0.03 0.03 0.03 0.03 0.04 0.05 0.04 0.03 0.02 0.01 0.01 0.01 0.01 0.01 0.01 0.02 0.02 0.01 0.01 0.01 0.01
0.01 0.01 0.01 0.01 0.01 0.01 0.01 0.01 0.02 0.02 0.02 0.02 0.02 0.03 0.02 0.02 0.02 0.03 0.03 0.03 0.02 0.02 0.03 0.04 0.04 0.04 0.05 0.04 0.03 0.02 0.02 0.01 0.01 0.01 0.01 0.01 0.01 0.01 0.01 0.01 0.01 0.00 0.00
0.02 0.02 0.02 0.01 0.02 0.02 0.02 0.02 0.03 0.02 0.02 0.03 0.03 0.02 0.02 0.01 0.01 0.02 0.01 0.02 0.03 0.04 0.04 0.04 0.04 0.03 0.03 0.02 0.03 0.03 0.03 0.03 0.01 0.01 0.01 0.01 0.01 0.01 0.01 0.01 0.01 0.00 0.00
MSLP
1017.85 1017.84 1017.81 1017.79 1017.82 1017.88 1017.99 1018.11 1018.23 1018.32 1018.37 1018.39 1018.38 1018.36 1018.36 1018.40 1018.48 1018.61 1018.79 1018.99 1019.22 1019.48 1019.74 1020.02 1020.31 1020.59 1020.84 1021.06 1021.21 1021.28 1021.28 1021.21 1021.10 1020.99 1020.89 1020.85 1020.85 1020.91 1021.00 1021.09 1021.17 1021.24 1021.28
1017.79 1017.79 1017.77 1017.76 1017.79 1017.84 1017.93 1018.02 1018.11 1018.17 1018.21 1018.22 1018.21 1018.21 1018.24 1018.29 1018.38 1018.52 1018.69 1018.90 1019.13 1019.40 1019.69 1020.01 1020.33 1020.65 1020.94 1021.17 1021.34 1021.43 1021.44 1021.40 1021.33 1021.27 1021.25 1021.27 1021.36 1021.48 1021.62 1021.75 1021.86 1021.93 1021.98
1017.64 1017.67 1017.69 1017.72 1017.77 1017.84 1017.92 1018.00 1018.06 1018.10 1018.12 1018.13 1018.13 1018.14 1018.18 1018.25 1018.35 1018.48 1018.64 1018.84 1019.06 1019.32 1019.62 1019.94 1020.28 1020.62 1020.93 1021.19 1021.38 1021.49 1021.53 1021.53 1021.52 1021.52 1021.57 1021.68 1021.84 1022.04 1022.24 1022.42 1022.56 1022.65 1022.72
1017.40 1017.47 1017.54 1017.63 1017.72 1017.83 1017.93 1018.00 1018.06 1018.08 1018.09 1018.09 1018.10 1018.13 1018.18 1018.26 1018.36 1018.48 1018.63 1018.79 1018.98 1019.22 1019.49 1019.80 1020.13 1020.48 1020.80 1021.08 1021.29 1021.44 1021.53 1021.59 1021.64 1021.72 1021.85 1022.04 1022.27 1022.54 1022.80 1023.03 1023.21 1023.33 1023.42
1017.09 1017.20 1017.32 1017.47 1017.63 1017.78 1017.90 1017.99 1018.04 1018.06 1018.07 1018.08 1018.10 1018.14 1018.21 1018.30 1018.41 1018.51 1018.62 1018.74 1018.89 1019.06 1019.29 1019.56 1019.87 1020.20 1020.54 1020.84 1021.09 1021.29 1021.44 1021.57 1021.70 1021.86 1022.06 1022.32 1022.62 1022.95 1023.26 1023.53 1023.75 1023.90 1024.01
1016.75 1016.88 1017.06 1017.26 1017.47 1017.65 1017.80 1017.91 1017.96 1017.99 1018.01 1018.03 1018.08 1018.15 1018.25 1018.36 1018.47 1018.55 1018.63 1018.69 1018.77 1018.88 1019.03 1019.25 1019.52 1019.84 1020.17 1020.50 1020.80 1021.07 1021.29 1021.50 1021.71 1021.94 1022.22 1022.54 1022.89 1023.26 1023.60 1023.91 1024.15 1024.33 1024.47
1016.44 1016.59 1016.78 1017.01 1017.25 1017.46 1017.63 1017.74 1017.81 1017.85 1017.88 1017.94 1018.03 1018.14 1018.28 1018.42 1018.53 1018.60 1018.64 1018.65 1018.65 1018.68 1018.75 1018.90 1019.13 1019.43 1019.76 1020.12 1020.48 1020.81 1021.11 1021.40 1021.69 1022.00 1022.34 1022.71 1023.09 1023.48 1023.85 1024.17 1024.43 1024.63 1024.78
1016.23 1016.36 1016.55 1016.78 1017.02 1017.24 1017.40 1017.52 1017.59 1017.64 1017.71 1017.81 1017.95 1018.12 1018.30 1018.47 1018.60 1018.67 1018.67 1018.62 1018.55 1018.49 1018.49 1018.57 1018.76 1019.03 1019.37 1019.76 1020.17 1020.57 1020.96 1021.33 1021.70 1022.07 1022.45 1022.85 1023.26 1023.65 1024.02 1024.34 1024.61 1024.82 1024.98
1016.15 1016.25 1016.43 1016.64 1016.85 1017.03 1017.18 1017.28 1017.35 1017.42 1017.52 1017.67 1017.86 1018.09 1018.33 1018.54 1018.68 1018.74 1018.71 1018.61 1018.47 1018.35 1018.28 1018.30 1018.44 1018.70 1019.05 1019.48 1019.93 1020.40 1020.86 1021.30 1021.73 1022.16 1022.57 1022.99 1023.40 1023.80 1024.16 1024.47 1024.73 1024.94 1025.12
1016.23 1016.31 1016.44 1016.61 1016.77 1016.92 1017.02 1017.09 1017.16 1017.24 1017.37 1017.56 1017.81 1018.09 1018.38 1018.62 1018.77 1018.82 1018.76 1018.61 1018.42 1018.24 1018.12 1018.10 1018.22 1018.47 1018.84 1019.29 1019.80 1020.32 1020.84 1021.35 1021.82 1022.28 1022.72 1023.15 1023.56 1023.94 1024.28 1024.59 1024.84 1025.05 1025.23
1016.45 1016.51 1016.61 1016.73 1016.84 1016.92 1016.98 1017.02 1017.07 1017.15 1017.30 1017.52 1017.81 1018.13 1018.44 1018.69 1018.84 1018.87 1018.78 1018.60 1018.36 1018.14 1017.99 1017.96 1018.07 1018.33 1018.72 1019.22 1019.77 1020.34 1020.91 1021.45 1021.96 1022.44 1022.89 1023.31 1023.71 1024.08 1024.42 1024.71 1024.96 1025.18 1025.36
1016.76 1016.82 1016.90 1016.97 1017.03 1017.06 1017.07 1017.07 1017.10 1017.18 1017.34 1017.57 1017.87 1018.19 1018.50 1018.73 1018.86 1018.86 1018.73 1018.51 1018.25 1018.01 1017.86 1017.83 1017.97 1018.26 1018.70 1019.24 1019.83 1020.45 1021.05 1021.61 1022.14 1022.62 1023.07 1023.49 1023.88 1024.24 1024.57 1024.86 1025.11 1025.33 1025.51
1017.08 1017.16 1017.23 1017.29 1017.31 1017.30 1017.28 1017.25 1017.26 1017.33 1017.48 1017.70 1017.97 1018.27 1018.54 1018.72 1018.80 1018.74 1018.56 1018.31 1018.04 1017.80 1017.67 1017.69 1017.88 1018.24 1018.73 1019.32 1019.97 1020.62 1021.24 1021.83 1022.35 1022.83 1023.27 1023.68 1024.05 1024.41 1024.73 1025.02 1025.27 1025.49 1025.68
1017.36 1017.47 1017.55 1017.61 1017.62 1017.60 1017.56 1017.52 1017.52 1017.57 1017.70 1017.88 1018.11 1018.34 1018.53 1018.64 1018.63 1018.49 1018.26 1017.98 1017.70 1017.50 1017.42 1017.50 1017.77 1018.22 1018.79 1019.46 1020.16 1020.84 1021.49 1022.08 1022.60 1023.06 1023.48 1023.87 1024.23 1024.57 1024.89 1025.18 1025.43 1025.65 1025.84
1017.54 1017.68 1017.80 1017.88 1017.91 1017.90 1017.87 1017.84 1017.84 1017.88 1017.97 1018.10 1018.26 1018.40 1018.48 1018.48 1018.36 1018.14 1017.85 1017.54 1017.27 1017.11 1017.10 1017.28 1017.66 1018.21 1018.88 1019.63 1020.39 1021.12 1021.78 1022.37 1022.87 1023.31 1023.70 1024.06 1024.40 1024.72 1025.03 1025.31 1025.57 1025.78 1025.96
1017.61 1017.79 1017.94 1018.06 1018.14 1018.17 1018.18 1018.17 1018.18 1018.21 1018.27 1018.34 1018.41 1018.45 1018.41 1018.28 1018.05 1017.74 1017.39 1017.06 1016.80 1016.70 1016.77 1017.06 1017.56 1018.23 1019.01 1019.84 1020.67 1021.44 1022.12 1022.70 1023.18 1023.58 1023.93 1024.26 1024.56 1024.86 1025.14 1025.40 1025.64 1025.84 1026.00
1017.59 1017.80 1018.00 1018.17 1018.30 1018.40 1018.45 1018.49 1018.52 1018.55 1018.58 1018.60 1018.59 1018.51 1018.36 1018.11 1017.77 1017.38 1016.98 1016.63 1016.40 1016.36 1016.53 1016.92 1017.53 1018.32 1019.20 1020.12 1021.00 1021.80 1022.49 1023.06 1023.51 1023.87 1024.17 1024.44 1024.69 1024.94 1025.19 1025.42 1025.63 1025.80 1025.93
1017.52 1017.76 1018.00 1018.23 1018.43 1018.59 1018.71 1018.80 1018.86 1018.90 1018.91 1018.88 1018.79 1018.63 1018.38 1018.03 1017.62 1017.16 1016.73 1016.38 1016.19 1016.20 1016.45 1016.94 1017.64 1018.52 1019.48 1020.46 1021.39 1022.21 1022.89 1023.43 1023.84 1024.14 1024.38 1024.59 1024.78 1024.97 1025.16 1025.34 1025.51 1025.64 1025.73
1017.47 1017.72 1018.01 1018.29 1018.56 1018.79 1018.97 1019.10 1019.20 1019.25 1019.24 1019.19 1019.05 1018.83 1018.52 1018.12 1017.65 1017.17 1016.73 1016.40 1016.24 1016.30 1016.61 1017.16 1017.93 1018.86 1019.87 1020.87 1021.81 1022.62 1023.28 1023.78 1024.14 1024.38 1024.55 1024.68 1024.79 1024.91 1025.03 1025.15 1025.26 1025.35 1025.40
1017.49 1017.76 1018.08 1018.41 1018.73 1019.01 1019.24 1019.41 1019.53 1019.60 1019.60 1019.53 1019.37 1019.13 1018.80 1018.38 1017.92 1017.44 1017.03 1016.72 1016.60 1016.70 1017.04 1017.63 1018.41 1019.35 1020.35 1021.33 1022.24 1023.02 1023.63 1024.07 1024.36 1024.53 1024.63 1024.68 1024.71 1024.75 1024.80 1024.85 1024.90 1024.94 1024.95
1017.60 1017.89 1018.24 1018.60 1018.95 1019.27 1019.53 1019.73 1019.87 1019.94 1019.95 1019.89 1019.75 1019.52 1019.21 1018.83 1018.41 1017.99 1017.61 1017.36 1017.27 1017.39 1017.74 1018.31 1019.06 1019.95 1020.89 1021.81 1022.65 1023.35 1023.89 1024.27 1024.49 1024.59 1024.60 1024.58 1024.53 1024.49 1024.47 1024.45 1024.45 1024.43 1024.41
1017.81 1018.12 1018.48 1018.86 1019.23 1019.56 1019.82 1020.03 1020.17 1020.26 1020.28 1020.25 1020.14 1019.97 1019.73 1019.42 1019.08 1018.74 1018.44 1018.24 1018.18 1018.30 1018.62 1019.14 1019.81 1020.60 1021.44 1022.25 1022.99 1023.59 1024.05 1024.34 1024.49 1024.52 1024.47 1024.38 1024.27 1024.17 1024.08 1024.01 1023.94 1023.89 1023.83
1018.10 1018.43 1018.80 1019.18 1019.54 1019.85 1020.11 1020.31 1020.44 1020.53 1020.58 1020.58 1020.53 1020.43 1020.28 1020.08 1019.85 1019.61 1019.39 1019.25 1019.22 1019.33 1019.60 1020.03 1020.60 1021.25 1021.95 1022.63 1023.23 1023.72 1024.08 1024.30 1024.38 1024.36 1024.26 1024.12 1023.97 1023.81 1023.68 1023.56 1023.45 1023.35 1023.26
1018.45 1018.78 1019.15 1019.52 1019.85 1020.14 1020.36 1020.54 1020.66 1020.75 1020.82 1020.86 1020.88 1020.87 1020.83 1020.75 1020.63 1020.50 1020.37 1020.29 1020.27 1020.36 1020.57 1020.90 1021.33 1021.83 1022.37 1022.90 1023.36 1023.74 1024.00 1024.15 1024.18 1024.12 1024.00 1023.84 1023.66 1023.48 1023.32 1023.16 1023.02 1022.89 1022.77
1018.83 1019.16 1019.50 1019.84 1020.14 1020.39 1020.58 1020.73 1020.84 1020.93 1021.01 1021.10 1021.19 1021.27 1021.32 1021.35 1021.35 1021.32 1021.27 1021.23 1021.23 1021.29 1021.42 1021.64 1021.94 1022.30 1022.68 1023.06 1023.40 1023.66 1023.85 1023.94 1023.94 1023.86 1023.74 1023.58 1023.40 1023.22 1023.04 1022.87 1022.71 1022.55 1022.39
1019.21 1019.52 1019.84 1020.14 1020.40 1020.61 1020.77 1020.89 1020.99 1021.09 1021.19 1021.32 1021.46 1021.61 1021.75 1021.87 1021.96 1022.00 1022.01 1022.01 1022.01 1022.04 1022.11 1022.23 1022.40 1022.63 1022.88 1023.12 1023.35 1023.53 1023.65 1023.71 1023.69 1023.62 1023.51 1023.37 1023.21 1023.04 1022.87 1022.69 1022.51 1022.32 1022.13
Thickness
5718 5717 5716 5716 5716 5715 5715 5715 5716 5715 5715 5716 5716 5716 5717 5718 5718 5718 5718 5718 5717 5716 5715 5714 5713 5712 5711 5709 5708 5707 5706 5706 5705 5704 5703 5702 5701 5700 5698 5697 5695 5694 5692
5715 5713 5713 5712 5712 5711 5711 5710 5711 5711 5711 5712 5713 5713 5713 5714 5714 5715 5715 5715 5714 5713 5713 5712 5711 5710 5709 5707 5706 5705 5705 5704 5703 5702 5701 5699 5698 5697 5696 5694 5692 5691 5689
5711 5710 5709 5708 5708 5708 5707 5706 5706 5707 5707 5708 5709 5710 5710 5710 5710 5710 5711 5711 5711 5710 5710 5709 5708 5707 5707 5705 5704 5704 5703 5702 5701 5700 5698 5697 5695 5694 5693 5691 5689 5687 5685
5706 5705 5704 5703 5704 5703 5702 5702 5702 5702 5702 5702 5703 5704 5704 5705 5706 5706 5706 5707 5707 5707 5706 5706 5705 5705 5704 5703 5702 5702 5701 5700 5699 5698 5696 5694 5693 5691 5690 5688 5686 5684 5682
5701 5700 5699 5699 5699 5698 5698 5699 5698 5697 5696 5697 5697 5698 5699 5700 5701 5701 5702 5702 5702 5703 5702 5702 5702 5701 5701 5700 5700 5699 5698 5697 5696 5695 5693 5691 5690 5688 5687 5684 5682 5680 5677
5695 5694 5694 5694 5693 5692 5691 5692 5692 5693 5692 5693 5693 5693 5694 5695 5696 5697 5697 5697 5697 5697 5697 5697 5696 5696 5696 5696 5696 5696 5696 5695 5693 5692 5691 5689 5687 5685 5683 5681 5678 5676 5673
5689 5688 5688 5687 5687 5687 5686 5686 5687 5687 5687 5688 5686 5685 5687 5690 5691 5692 5692 5692 5691 5691 5690 5690 5690 5690 5690 5690 5691 5691 5691 5691 5690 5689 5687 5685 5683 5681 5680 5677 5674 5671 5668
5683 5683 5682 5681 5682 5682 5681 5681 5681 5680 5681 5682 5680 5676 5675 5678 5682 5685 5685 5685 5685 5685 5684 5683 5683 5683 5684 5684 5685 5685 5685 5685 5685 5684 5682 5681 5679 5677 5675 5672 5669 5666 5663
5677 5677 5676 5676 5677 5677 5676 5675 5675 5675 5674 5676 5677 5673 5669 5668 5671 5675 5676 5678 5678 5677 5677 5676 5676 5676 5677 5678 5678 5679 5679 5679 5679 5678 5677 5676 5674 5672 5669 5667 5664 5660 5657
5672 5671 5670 5670 5670 5670 5671 5670 5670 5670 5669 5669 5670 5671 5670 5669 5665 5665 5666 5668 5670 5670 5670 5670 5669 5669 5670 5670 5671 5672 5673 5673 5673 5672 5671 5669 5668 5666 5663 5661 5658 5654 5650
5666 5665 5664 5663 5663 5664 5664 5664 5664 5664 5664 5664 5664 5664 5664 5664 5664 5661 5659 5659 5660 5661 5662 5662 5663 5663 5663 5663 5664 5665 5665 5666 5666 5665 5664 5663 5661 5659 5657 5654 5651 5648 5644
5658 5658 5657 5656 5657 5658 5658 5658 5658 5658 5658 5659 5658 5659 5658 5658 5657 5656 5654 5653 5652 5652 5653 5654 5655 5655 5655 5655 5656 5656 5657 5658 5658 5658 5657 5655 5653 5651 5649 5646 5643 5640 5636
5649 5650 5651 5650 5650 5650 5652 5652 5651 5652 5653 5653 5653 5653 5653 5654 5654 5653 5650 5648 5646 5645 5644 5645 5646 5647 5647 5647 5647 5648 5648 5649 5649 5648 5648 5647 5645 5642 5640 5637 5634 5631 5627
5642 5643 5643 5643 5643 5644 5645 5645 5645 5646 5646 5647 5647 5647 5647 5648 5649 5648 5646 5643 5639 5638 5638 5638 5638 5639 5639 5639 5639 5639 5638 5639 5638 5638 5637 5636 5635 5633 5630 5627 5624 5621 5618
5636 5636 5636 5636 5636 5637 5638 5638 5638 5638 5639 5639 5640 5640 5641 5642 5642 5642 5642 5641 5637 5633 5632 5631 5631 5631 5631 5631 5630 5630 5629 5629 5628 5627 5627 5626 5624 5622 5620 5617 5614 5611 5608
5628 5628 5629 5629 5629 5630 5630 5630 5630 5630 5631 5632 5632 5633 5633 5634 5635 5635 5635 5635 5634 5632 5627 5625 5624 5623 5623 5622 5621 5621 5621 5620 5619 5618 5617 5616 5614 5612 5610 5608 5605 5602 5599
5620 5621 5621 5621 5621 5622 5622 5622 5622 5623 5623 5623 5624 5625 5626 5627 5627 5628 5628 5627 5626 5626 5622 5618 5617 5616 5615 5614 5613 5612 5612 5611 5609 5608 5607 5606 5605 5603 5600 5599 5597 5594 5591
5613 5613 5613 5613 5613 5614 5614 5614 5614 5615 5615 5615 5615 5617 5618 5619 5620 5620 5620 5620 5619 5619 5617 5613 5609 5608 5606 5606 5605 5604 5602 5601 5600 5599 5598 5597 5596 5594 5592 5590 5589 5587 5585
5604 5605 5605 5605 5605 5605 5606 5607 5607 5607 5607 5607 5607 5608 5609 5611 5611 5612 5612 5612 5612 5612 5611 5608 5604 5601 5599 5599 5598 5596 5594 5593 5592 5591 5590 5589 5588 5587 5586 5584 5583 5581 5579
5596 5596 5596 5597 5597 5597 5598 5599 5599 5599 5599 5599 5599 5600 5601 5603 5604 5605 5605 5604 5604 5603 5602 5600 5597 5594 5592 5591 5590 5588 5586 5585 5585 5584 5584 5583 5582 5581 5580 5579 5578 5577 5575
5588 5588 5588 5588 5589 5589 5589 5590 5591 5591 5591 5591 5592 5592 5593 5595 5597 5598 5598 5597 5597 5596 5594 5592 5590 5588 5586 5584 5583 5582 5580 5578 5578 5578 5577 5577 5577 5576 5576 5575 5574 5573 5571
5579 5579 5579 5580 5580 5581 5582 5583 5583 5583 5583 5583 5583 5584 5586 5587 5589 5590 5590 5591 5591 5591 5589 5587 5585 5583 5581 5580 5578 5577 5574 5572 5571 5573 5572 5572 5573 5572 5573 5572 5572 5571 5570
5569 5570 5570 5571 5572 5573 5574 5576 5576 5576 5575 5575 5576 5577 5579 5579 5580 5581 5582 5583 5584 5584 5584 5583 5581 5579 5577 5576 5575 5572 5570 5569 5568 5570 5569 5568 5569 5569 5571 5571 5571 5570 5569
5561 5561 5562 5563 5564 5565 5567 5568 5569 5569 5569 5569 5569 5570 5571 5572 5573 5574 5574 5575 5575 5576 5577 5577 5577 5576 5575 5574 5573 5572 5569 5567 5567 5567 5567 5565 5566 5567 5570 5571 5571 5570 5569
5553 5553 5554 5555 5557 5558 5560 5562 5563 5563 5562 5562 5563 5564 5565 5565 5566 5568 5568 5568 5568 5569 5571 5572 5572 5572 5572 5571 5570 5568 5565 5564 5563 5564 5565 5564 5564 5565 5567 5569 5571 5571 5570
5547 5547 5548 5549 5551 5552 5554 5556 5557 5557 5556 5556 5557 5558 5560 5560 5561 5562 5563 5563 5563 5563 5565 5566 5567 5567 5568 5567 5567 5567 5565 5563 5561 5561 5564 5563 5563 5563 5563 5568 5570 5571 5571